Regional Weather Roundup
Issued by NWS

Home | Current Version | Previous Version | Graphics & Text | Print | Product List | Glossary On
Versions: 1 2 3 4 5 6 7 8 9 10 11 12 13 14 15 16 17 18 19 20 21 22 23 24 25 26 27 28 29 30 31 32 33 34 35 36 37 38 39 40 41 42 43 44 45 46 47 48 49 50
000
ASUS43 KLMK 031802
RWRKY
KENTUCKY REGIONAL WEATHER ROUNDUP
NATIONAL WEATHER SERVICE LOUISVILLE KY
200 PM EDT SUN MAY 03 2015

NOTE "FAIR" INDICATES FEW OR NO CLOUDS BELOW 12,000 FEET
WITH NO SIGNIFICANT WEATHER AND/OR OBSTRUCTIONS TO VISIBILITY.

KYZ001>023-026-027-061>063-070>075-031900-
WESTERN AND SOUTH CENTRAL KENTUCKY

CITY           SKY/WX    TMP DP  RH WIND       PRES   REMARKS
PADUCAH        MOSUNNY   79  46  31 S12G18    30.08F
HENDERSON      SUNNY     75  46  35 S13       30.07F
OWENSBORO      SUNNY     78  52  40 SW9       30.10F
HOPKINSVILLE   MOSUNNY   76  53  43 SW8G17    30.11F
BOWLING GREEN  MOSUNNY   77  48  35 S7G17     30.12F
GLASGOW        NOT AVBL
$$

KYZ024-025-028>034-038-045-046-053-031900-
NORTH CENTRAL KENTUCKY

CITY           SKY/WX    TMP DP  RH WIND       PRES   REMARKS
LOUISVILLE/SDF MOSUNNY   79  46  31 S14G20    30.10F
LOUISVILLE/LOU MOSUNNY   77  49  37 SW9       30.11F
FORT KNOX      MOSUNNY   76  47  35 S14       30.10F
$$

KYZ035>037-039>044-047>052-055>060-089>105-031900-
NORTHEAST KENTUCKY

CITY           SKY/WX    TMP DP  RH WIND       PRES   REMARKS
LEXINGTON      PTSUNNY   75  45  34 CALM      30.14F
COVINGTON      MOSUNNY   75  50  41 S8        30.12F
FRANKFORT      CLOUDY    74  45  35 S6        30.12F
$$

KYZ054-064>069-076>088-106>120-031900-
SOUTHEAST KENTUCKY

CITY           SKY/WX    TMP DP  RH WIND       PRES   REMARKS
JACKSON        PTSUNNY   75  41  29 VRB3      30.16F
LONDON         MOSUNNY   74  39  28 S5        30.15F
SOMERSET       NOT AVBL
MIDDLESBORO    MOSUNNY   75  42  30 S6        30.16F
MONTICELLO     PTCLDY    78  45  31 W8        30.17F
$$



USA.gov is the U.S. government's official web portal to all federal, state and local government web resources and services.